Location: Florida Caverns State Park
(30.8073°N, 85.2161°W)
Time: 02:06:36
(UTC-04:00)

N. Korean satellite - Pass Details

Date: 26 March 2019
Orbit: 457 x 508 km, 97.2° (Epoch: 19 April)

Event Time Altitude Azimuth Distance (km) Brightness Sun altitude
Rises 06:54:16 0° 33° (NNE) 2,546 10.9 -10.1°
Reaches altitude 10° 06:56:55 10° 55° (NE) 1,673 10.4 -9.5°
Maximum altitude 06:59:16 16° 96° (E) 1,326 10.1 -9.0°
Drops below altitude 10° 07:01:37 10° 136° (SE) 1,684 9.8 -8.5°
Sets 07:04:18 0° 158° (SSE) 2,571 10.4 -7.9°
